sat.trackr.live / text

‹ back to catalog

STARLINK-34975

NORAD 65224 · 2025-176AC

PAYLOAD ACTIVE UNKNOWN

§ Identity

Operator
Country
US
Launch date
2025-08-14
Launch site
AFETR
Launch vehicle
Mass (kg)
RCS (m²)

Purposes: comms

External: N2YO · Heavens-Above · Gunter

§ Orbital elements

Epoch: 2026-05-25T00:20:10.946112Z

Period
93.85 min
Inclination
53.1591°
Eccentricity
0.0001252
Mean motion
15.34403496 rev/d
Perigee alt
461.8 km
Apogee alt
463.5 km
Semi-major
6,840.8 km
B*
5.3874e-4
RAAN
157.6704°
Arg perigee
81.5627°
Mean anomaly
278.5517°
Rev number
4,481

§ Raw data

STARLINK-349751 65224U 25176AC  26145.01401558  .00017871  00000+0  53874-3 0  99952 65224  53.1591 157.6704 0001252  81.5627 278.5517 15.34403496 44815

JSON: /api/v1/satellites/65224 · /tle

For live sub-satellite position, see the globe view (requires WebGL).

§ Visibility from observer

Set your observer location to see the next 7 days of passes ≥ 10°. The values pass through the URL so the page stays shareable.

No JS? Fill the form by hand. The geolocation button needs JavaScript.